,,PA_Meas_PMT16A,,PR_Meas_QMR101_102,,RH_Meas_QMH101,,SR_Meas_QMS101,,TA_Meas_QMH101,,GenWind,,GenWind,
time,status,PA,status,PR,status,RH,status,SR,status,TA,status,DirAvg,status,SpdAvg,
2014-02-03, 07:07:04,VALID,915.38,VALID,0,VALID,94.4236,VALID,49.5304,VALID,19.3713,VALID,315,VALID,0.2625,
2014-02-03, 07:10:04,VALID,915.424,VALID,0,VALID,94.0501,VALID,50.175,VALID,19.4898,VALID,349,VALID,0.510156,
2014-02-03, 07:11:04,VALID,915.452,VALID,0,VALID,93.8519,VALID,52.0015,VALID,19.5303,VALID,356,VALID,0.547266,
2014-02-03, 07:16:04,VALID,915.539,VALID,0,VALID,92.9142,VALID,46.7369,VALID,19.6443,VALID,317,VALID,0.1375,
2014-02-03, 07:17:04,VALID,915.512,VALID,0,VALID,92.4263,VALID,52.5387,VALID,19.6848,VALID,318,VALID,0.383984,
2014-02-03, 07:18:04,VALID,915.547,VALID,0,VALID,92.3272,VALID,60.9191,VALID,19.7043,VALID,316,VALID,0.774609,
2014-02-03, 07:19:04,VALID,915.557,VALID,0,VALID,91.8545,VALID,92.3994,VALID,19.6833,VALID,345,VALID,0.819141,
2014-02-03, 07:20:04,VALID,915.609,VALID,0,VALID,91.824,VALID,83.052,VALID,19.8003,VALID,355,VALID,0.0429688,
2014-02-03, 07:21:04,VALID,915.629,VALID,0,VALID,91.6868,VALID,87.2422,VALID,19.8198,VALID,355,VALID,0.278516,
2014-02-03, 07:22:04,VALID,915.643,VALID,0,VALID,91.6868,VALID,90.5729,VALID,19.9173,VALID,355,VALID,0.125391,
2014-02-03, 07:23:04,VALID,915.684,VALID,0,VALID,91.4962,VALID,75.4237,VALID,20.0163,VALID,351,VALID,0.375781,
2014-02-03, 07:24:04,VALID,915.699,VALID,0,VALID,91.0083,VALID,102.606,VALID,20.0343,VALID,347,VALID,0.216406,
2014-02-03, 07:25:04,VALID,915.673,VALID,0,VALID,91.2142,VALID,124.954,VALID,20.0928,VALID,347,VALID,0,
2014-02-03, 07:26:04,VALID,915.695,VALID,0,VALID,91.2523,VALID,138.707,VALID,20.1903,VALID,347,VALID,0,
2014-02-03, 07:27:04,VALID,915.724,VALID,0,VALID,91.0465,VALID,150.525,VALID,20.3464,VALID,347,VALID,0,
2014-02-03, 07:28:04,VALID,915.698,VALID,0,VALID,90.1926,VALID,141.607,VALID,20.5024,VALID,342,VALID,0.322656,
2014-02-03, 07:29:04,VALID,915.743,VALID,0,VALID,88.8357,VALID,129.896,VALID,20.5609,VALID,342,VALID,0.0269531,
2014-02-03, 07:30:04,VALID,915.763,VALID,0,VALID,88.4545,VALID,115.929,VALID,20.6975,VALID,342,VALID,0.501562,
2014-02-03, 07:31:04,VALID,915.778,VALID,0,VALID,87.8446,VALID,121.516,VALID,20.8145,VALID,342,VALID,0.465625,
2014-02-03, 07:32:04,VALID,915.74,VALID,0,VALID,86.7392,VALID,85.9529,VALID,20.834,VALID,341,VALID,0.598828,
2014-02-03, 07:33:04,VALID,915.726,VALID,0,VALID,86.8536,VALID,70.8037,VALID,20.795,VALID,340,VALID,0.697656,
2014-02-03, 07:34:04,VALID,915.694,VALID,0,VALID,87.5854,VALID,107.119,VALID,20.795,VALID,336,VALID,0.845703,
2014-02-03, 07:35:04,VALID,915.714,VALID,0,VALID,86.9222,VALID,93.7961,VALID,20.7755,VALID,319,VALID,0.917188,
2014-02-03, 07:36:04,VALID,915.743,VALID,0,VALID,87.2652,VALID,83.052,VALID,20.6764,VALID,316,VALID,0.165234,
2014-02-03, 07:37:04,VALID,915.793,VALID,0,VALID,87.7608,VALID,126.781,VALID,20.639,VALID,305,VALID,0.753516,
2014-02-03, 07:38:04,VALID,915.793,VALID,0,VALID,87.9895,VALID,127.64,VALID,20.5789,VALID,305,VALID,0.933984,
2014-02-03, 07:39:04,VALID,915.786,VALID,0,VALID,88.5307,VALID,97.3417,VALID,20.5414,VALID,305,VALID,0.389844,
2014-02-03, 07:40:04,VALID,915.768,VALID,0,VALID,88.8967,VALID,116.036,VALID,20.5414,VALID,305,VALID,0.1125,
2014-02-03, 07:41:04,VALID,915.776,VALID,0,VALID,88.8128,VALID,107.978,VALID,20.5804,VALID,305,VALID,0.559766,
2014-02-03, 07:42:04,VALID,915.757,VALID,0,VALID,89.0415,VALID,120.549,VALID,20.6585,VALID,307,VALID,0.451562,
2014-02-03, 07:43:04,VALID,915.776,VALID,0,VALID,88.3859,VALID,117.756,VALID,20.7365,VALID,314,VALID,0.705078,
2014-02-03, 07:44:04,VALID,915.776,VALID,0,VALID,89.2092,VALID,112.598,VALID,20.8356,VALID,353,VALID,0.78125,
2014-02-03, 07:45:04,VALID,915.79,VALID,0,VALID,88.5384,VALID,113.565,VALID,20.8941,VALID,348,VALID,0.55,
2014-02-03, 07:46:04,VALID,915.8,VALID,0,VALID,87.9285,VALID,115.822,VALID,20.9511,VALID,360,VALID,0.891797,
2014-02-03, 07:47:04,VALID,915.831,VALID,0,VALID,87.2424,VALID,133.549,VALID,21.008,VALID,351,VALID,0.567187,
2014-02-03, 07:48:04,VALID,915.849,VALID,0,VALID,86.9603,VALID,148.484,VALID,21.086,VALID,15,VALID,0.851953,
2014-02-03, 07:49:04,VALID,915.792,VALID,0,VALID,86.6477,VALID,154.93,VALID,21.1836,VALID,5,VALID,1.26094,
2014-02-03, 07:50:04,VALID,915.823,VALID,0,VALID,87.593,VALID,163.525,VALID,21.3201,VALID,14,VALID,0.937891,
2014-02-03, 07:51:04,VALID,915.826,VALID,0,VALID,86.9756,VALID,201.022,VALID,21.4567,VALID,8,VALID,0.805859,
2014-02-03, 07:52:04,VALID,915.84,VALID,0,VALID,86.2589,VALID,245.396,VALID,21.6128,VALID,21,VALID,0.807031,
2014-02-03, 07:53:04,VALID,915.837,VALID,0,VALID,84.7343,VALID,254.098,VALID,21.8469,VALID,9,VALID,0.617188,
2014-02-03, 07:54:04,VALID,915.848,VALID,0,VALID,83.08,VALID,229.387,VALID,21.9249,VALID,315,VALID,0.596094,
2014-02-03, 07:55:04,VALID,915.84,VALID,0,VALID,83.1638,VALID,111.094,VALID,21.9428,VALID,12,VALID,0.857031,
2014-02-03, 07:56:04,VALID,915.833,VALID,0,VALID,83.0114,VALID,129.359,VALID,22.0632,VALID,24,VALID,1.37383,
2014-02-03, 07:57:04,VALID,915.846,VALID,0,VALID,83.1334,VALID,150.095,VALID,22.1022,VALID,16,VALID,0.980078,
2014-02-03, 07:58:04,VALID,915.857,VALID,0,VALID,82.7522,VALID,239.809,VALID,22.0225,VALID,358,VALID,1.31328,
2014-02-03, 07:59:04,VALID,915.881,VALID,0,VALID,83.202,VALID,230.354,VALID,21.9656,VALID,356,VALID,0.932813,
2014-02-03, 08:00:04,VALID,915.889,VALID,0,VALID,82.554,VALID,232.718,VALID,21.8681,VALID,328,VALID,0.575781,
2014-02-03, 08:01:04,VALID,915.92,VALID,0,VALID,83.3697,VALID,235.081,VALID,21.9071,VALID,328,VALID,0.530078,
2014-02-03, 08:02:04,VALID,915.877,VALID,0,VALID,81.2732,VALID,231.536,VALID,21.8876,VALID,318,VALID,1.12695,
2014-02-03, 08:03:04,VALID,915.885,VALID,0,VALID,82.554,VALID,234.114,VALID,21.8485,VALID,333,VALID,0.975781,
2014-02-03, 08:04:04,VALID,915.897,VALID,0,VALID,83.1334,VALID,241.42,VALID,21.8664,VALID,340,VALID,1.14922,
2014-02-03, 08:05:04,VALID,915.971,VALID,0,VALID,83.3773,VALID,248.189,VALID,21.8664,VALID,350,VALID,0.804688,
2014-02-03, 08:06:04,VALID,915.972,VALID,0,VALID,83.202,VALID,245.288,VALID,22.003,VALID,350,VALID,0.323828,
2014-02-03, 08:07:04,VALID,916.002,VALID,0,VALID,82.554,VALID,251.412,VALID,22.1786,VALID,343,VALID,0.525781,
2014-02-03, 08:08:04,VALID,916.022,VALID,0,VALID,81.6087,VALID,252.594,VALID,22.2176,VALID,331,VALID,0.394531,
2014-02-03, 08:09:04,VALID,916.038,VALID,0,VALID,82.1271,VALID,253.883,VALID,22.2176,VALID,331,VALID,0.291797,
2014-02-03, 08:10:04,VALID,916.042,VALID,0,VALID,81.4562,VALID,265.702,VALID,22.2567,VALID,329,VALID,0.523828,
2014-02-03, 08:11:04,VALID,916.063,VALID,0,VALID,81.7383,VALID,272.471,VALID,22.2957,VALID,339,VALID,1.10586,
2014-02-03, 08:12:04,VALID,916.026,VALID,0,VALID,82.9199,VALID,275.049,VALID,22.3152,VALID,10,VALID,0.602734,
2014-02-03, 08:13:04,VALID,916.036,VALID,0,VALID,80.5,0,0,0,0,0,0,0,0,
